Starlink 32380

operational
NORAD ID: 61069 Int'l Des: 2024-164 Owner: SPXS Country: US Constellation: starlink
LEOCIRCULAR

About Starlink 32380

Description loading...

Live Position

Loading 3D Globe...

Upcoming Passes

Altitude History

Altitude vs Time

uPlot chart will show altitude changes over time

Two-Line Element Set

1 61069U 24164V 25349.67391803 -.00000479 00000-0 -40533-5 0 9991
2 61069 53.1598 121.4156 0000931 109.4889 250.6213 15.30199087 70613
Epoch: Dec 15, 2025 • Age: 28 hours

Current Status

Altitude 484.0 km
Velocity 7.62 km/s
Sub-Earth Point -27.65°S, 63.74°E
Launch Date Sep 13, 2024
Age 1.2 years
Type internet

Technical Details

Classification Payload
Mass 730.00 kg
Dry Mass 700.00 kg
Total Mass 730.00 kg
Length 0.30 m
Diameter 4.10 m
Span 29.00 m
Shape Box + pan
Manufacturer SPXS
Bus Type Starlink V2M
Phase Status In Orbit
Owner/State SPXS/US

Large Constellations

Loading constellations...